San Angelo, TX

9:22 AM CDT on May 30, 2017 (GMT -0500)
San Angelo Regional-Mathis

Weather History for KSJT - May, 2014

Change the Weather History Date:

Sunday, May 4, 2014

  Actual Average Record
Temperature  
Mean Temperature 80 °F 71 °F  
Max Temperature 96 °F 85 °F 102 °F (2012)
Min Temperature 64 °F 58 °F 39 °F (1945)
Degree Days  
Heating Degree Days 0 1  
Month to date heating degree days 7 4  
Since 1 July heating degree days 2476 2310  
Cooling Degree Days 15 7  
Month to date cooling degree days 20 27  
Year to date cooling degree days 273 183  
Growing Degree Days 30 (Base 50)    
Moisture  
Dew Point 28 °F    
Average Humidity 19    
Maximum Humidity 31    
Minimum Humidity 7    
Precipitation  
Precipitation 0.00 in 0.07 in 1.55 in (2001)
Month to date precipitation 0.00 0.28  
Year to date precipitation 0.52 5.48  
Sea Level Pressure  
Sea Level Pressure 29.92 in    
Wind  
Wind Speed 14 mph (South)    
Max Wind Speed 23 mph    
Max Gust Speed 32 mph    
Visibility 10 miles    
Events      
T = Trace of Precipitation, MM = Missing Value Source: NWS Daily Summary

Daily Weather History Graph

Daily Weather History Graph

Search for Another Location

Airport or City:

Trip Planner

Search our weather history database for the weather conditions in past years. The results will help you decide how hot, cold, wet, or windy it might be!

Date:

Astronomy

May. 04, 2014 Rise Set
Actual Time 6:54 AM CDT 8:23 PM CDT
Civil Twilight 6:28 AM CDT 8:49 PM CDT
Nautical Twilight 5:57 AM CDT 9:20 PM CDT
Astronomical Twilight 5:24 AM CDT 9:53 PM CDT
Moon 11:21 AM CDT (5/4) 12:28 AM CDT (5/4)
Length of Visible Light 14h 21m
Length of Day
13h 29m
Waxing Crescent, 28% of the Moon is Illuminated
May 4
Waxing Crescent
May 6
First Quarter
May 14
Full
May 21
Last Quarter
May 28
New

Hourly Weather History & Observations

Time (CDT) Temp. Dew Point Humidity Pressure Visibility Wind Dir Wind Speed Gust Speed Precip Events Conditions
12:51 AM 72.0 °F 23.0 °F 16% 29.96 in 10.0 mi South 13.8 mph - N/A   Clear
1:51 AM 70.0 °F 24.1 °F 18% 29.96 in 10.0 mi South 11.5 mph - N/A   Clear
2:51 AM 73.0 °F 24.1 °F 16% 29.94 in 10.0 mi South 16.1 mph - N/A   Clear
3:51 AM 72.0 °F 24.1 °F 17% 29.94 in 10.0 mi SSW 21.9 mph 27.6 mph N/A   Clear
4:51 AM 69.1 °F 26.1 °F 20% 29.95 in 10.0 mi South 20.7 mph 25.3 mph N/A   Clear
5:51 AM 66.9 °F 28.0 °F 23% 29.96 in 10.0 mi South 16.1 mph - N/A   Clear
6:51 AM 64.0 °F 28.9 °F 27% 29.99 in 10.0 mi South 13.8 mph 21.9 mph N/A   Clear
7:51 AM 64.9 °F 33.1 °F 31% 30.01 in 10.0 mi South 13.8 mph - N/A   Clear
8:51 AM 70.0 °F 35.1 °F 28% 30.01 in 10.0 mi South 21.9 mph 32.2 mph N/A   Clear
9:51 AM 75.9 °F 37.0 °F 24% 30.01 in 10.0 mi South 18.4 mph 28.8 mph N/A   Clear
10:51 AM 81.0 °F 36.0 °F 20% 30.01 in 10.0 mi South 18.4 mph 25.3 mph N/A   Clear
11:51 AM 86.0 °F 33.1 °F 15% 29.99 in 10.0 mi South 16.1 mph 27.6 mph N/A   Clear
12:51 PM 90.0 °F 30.0 °F 12% 29.95 in 10.0 mi SSW 23.0 mph 28.8 mph N/A   Clear
1:51 PM 93.0 °F 32.0 °F 12% 29.92 in 10.0 mi South 17.3 mph 26.5 mph N/A   Clear
2:51 PM 93.0 °F 28.9 °F 10% 29.90 in 10.0 mi South 11.5 mph 25.3 mph N/A   Clear
3:51 PM 93.9 °F 26.1 °F 9% 29.87 in 10.0 mi SSW 10.4 mph 23.0 mph N/A   Clear
4:51 PM 95.0 °F 23.0 °F 8% 29.84 in 10.0 mi South 10.4 mph 20.7 mph N/A   Clear
5:51 PM 93.9 °F 21.0 °F 7% 29.83 in 10.0 mi Variable 5.8 mph 19.6 mph N/A   Clear
6:51 PM 93.0 °F 21.9 °F 8% 29.83 in 10.0 mi South 9.2 mph - N/A   Clear
7:51 PM 90.0 °F 25.0 °F 10% 29.83 in 10.0 mi South 8.1 mph - N/A   Clear
8:51 PM 84.9 °F 24.1 °F 11% 29.84 in 10.0 mi South 9.2 mph - N/A   Clear
9:51 PM 80.1 °F 25.0 °F 13% 29.86 in 10.0 mi South 11.5 mph - N/A   Clear
10:51 PM 78.1 °F 30.0 °F 17% 29.86 in 10.0 mi South 12.7 mph - N/A   Clear
11:51 PM 77.0 °F 32.0 °F 19% 29.87 in 10.0 mi South 11.5 mph - N/A   Clear